{"data":{"norad_id":64147,"epoch":"2026-09-20T13:57:31.031424Z","epoch_age_seconds":133287,"freshness":"FRESH","line1":"1 64147U 25112B   26263.58160916  .00010858  00000+0  33795-3 0  9999","line2":"2 64147  97.2857 310.6891 0000203  46.9625 313.1634 15.33467533 72760","mean_motion":15.33467533,"eccentricity":2.03e-5,"inclination_deg":97.2857,"raan_deg":310.6891,"arg_perigee_deg":46.9625,"mean_anomaly_deg":313.1634,"bstar":0.00033795,"rev_number":7276,"period_min":93.904824785097,"perigee_km":465.33720759779,"apogee_km":465.61505829099,"semimajor_km":6843.6131329444,"source":"CELESTRAK","updated_at":"2026-09-21T09:00:35.237523Z"}}